| time (UTC) | temp F | wind direction | speed knots | gust knots | rain 1hr in | rain 24hr in | rain mn in | humidity % | barometer mb |
| 20260904000023 | 98 | 205 | 2.6 | 7.0 | 0.00 | 0.00 | 0.00 | 24 | 1011.4 |
| 20260903234517 | 99 | 173 | 2.6 | 8.7 | 0.00 | 0.00 | 0.00 | 24 | 1011.5 |
| 20260903233018 | 99 | 197 | 4.3 | 8.7 | 0.00 | 0.00 | 0.00 | 24 | 1011.4 |
| 20260903231509 | 99 | 155 | 3.5 | 10.4 | 0.00 | 0.00 | 0.00 | 25 | 1011.3 |
| 20260903230021 | 99 | 136 | 4.3 | 8.7 | 0.00 | 0.00 | 0.00 | 26 | 1011.2 |
| 20260903224518 | 100 | 215 | 4.3 | 8.7 | 0.00 | 0.00 | 0.00 | 25 | 1011.3 |
| 20260903223030 | 100 | 189 | 3.5 | 9.6 | 0.00 | 0.00 | 0.00 | 24 | 1011.4 |
| 20260903221520 | 100 | 179 | 4.3 | 10.4 | 0.00 | 0.00 | 0.00 | 23 | 1011.4 |
| 20260903220014 | 101 | 144 | 4.3 | 7.8 | 0.00 | 0.00 | 0.00 | 22 | 1011.6 |
| 20260903214520 | 101 | 256 | 2.6 | 6.1 | 0.00 | 0.00 | 0.00 | 22 | 1011.7 |
| 20260903213025 | 101 | 236 | 1.7 | 6.1 | 0.00 | 0.00 | 0.00 | 23 | 1011.8 |
| 20260903211526 | 100 | 259 | 0.0 | 6.1 | 0.00 | 0.00 | 0.00 | 24 | 1012.0 |
| 20260903210025 | 100 | 138 | 3.5 | 7.0 | 0.00 | 0.00 | 0.00 | 23 | 1012.1 |
| 20260903204518 | 100 | 64 | 0.9 | 7.0 | 0.00 | 0.00 | 0.00 | 23 | 1012.3 |
| 20260903203033 | 100 | 159 | 4.3 | 7.8 | 0.00 | 0.00 | 0.00 | 23 | 1012.5 |
| 20260903201532 | 100 | 185 | 2.6 | 7.0 | 0.00 | 0.00 | 0.00 | 25 | 1012.5 |
| 20260903200027 | 99 | 163 | 4.3 | 7.8 | 0.00 | 0.00 | 0.00 | 24 | 1012.6 |
| 20260903194526 | 98 | 112 | 3.5 | 7.8 | 0.00 | 0.00 | 0.00 | 25 | 1012.9 |
| 20260903193026 | 98 | 209 | 2.6 | 7.8 | 0.00 | 0.00 | 0.00 | 27 | 1013.0 |
| 20260903191509 | 98 | 213 | 2.6 | 6.1 | 0.00 | 0.00 | 0.00 | 28 | 1013.0 |
| 20260903190007 | 98 | 191 | 1.7 | 7.0 | 0.00 | 0.00 | 0.00 | 29 | 1013.2 |
| 20260903184511 | 98 | 196 | 1.7 | 3.5 | 0.00 | 0.00 | 0.00 | 26 | 1013.4 |
| 20260903183003 | 97 | 24 | 0.0 | 5.2 | 0.00 | 0.00 | 0.00 | 31 | 1013.5 |
| 20260903181502 | 96 | 12 | 0.0 | 4.3 | 0.00 | 0.00 | 0.00 | 34 | 1013.8 |
| 20260903180007 | 95 | 302 | 0.9 | 4.3 | 0.00 | 0.00 | 0.00 | 33 | 1013.9 |
| 20260903174517 | 94 | 360 | 2.6 | 5.2 | 0.00 | 0.00 | 0.00 | 35 | 1014.1 |
| 20260903173018 | 92 | 155 | 1.7 | 6.1 | 0.00 | 0.00 | 0.00 | 34 | 1014.1 |
| 20260903171504 | 91 | 292 | 1.7 | 7.0 | 0.00 | 0.00 | 0.00 | 38 | 1014.3 |
| 20260903170005 | 90 | 240 | 3.5 | 7.0 | 0.00 | 0.00 | 0.00 | 39 | 1014.3 |
| 20260903164510 | 88 | 202 | 3.5 | 7.8 | 0.00 | 0.00 | 0.00 | 41 | 1014.4 |
| 20260903163013 | 87 | 360 | 1.7 | 7.0 | 0.00 | 0.00 | 0.00 | 43 | 1014.3 |
| 20260903161504 | 86 | 184 | 1.7 | 7.0 | 0.00 | 0.00 | 0.00 | 44 | 1014.2 |
| 20260903160008 | 85 | 208 | 2.6 | 5.2 | 0.00 | 0.00 | 0.00 | 47 | 1014.1 |
| 20260903154513 | 85 | 217 | 2.6 | 7.8 | 0.00 | 0.00 | 0.00 | 46 | 1014.4 |
| 20260903153013 | 84 | 239 | 2.6 | 7.0 | 0.00 | 0.00 | 0.00 | 47 | 1014.2 |
| 20260903151523 | 82 | 248 | 2.6 | 7.0 | 0.00 | 0.00 | 0.00 | 50 | 1014.1 |
| 20260903150009 | 81 | 258 | 4.3 | 11.3 | 0.00 | 0.00 | 0.00 | 52 | 1014.0 |
| 20260903144507 | 79 | 360 | 2.6 | 9.6 | 0.00 | 0.00 | 0.00 | 55 | 1014.0 |
| 20260903143020 | 78 | 360 | 2.6 | 8.7 | 0.00 | 0.00 | 0.00 | 55 | 1014.2 |
| 20260903141517 | 80 | 360 | 2.6 | 9.6 | 0.00 | 0.00 | 0.00 | 54 | 1014.4 |
| 20260903140028 | 78 | 202 | 3.5 | 10.4 | 0.00 | 0.00 | 0.00 | 59 | 1014.2 |
| 20260903134504 | 76 | 360 | 3.5 | 8.7 | 0.00 | 0.00 | 0.00 | 63 | 1014.1 |
| 20260903133012 | 74 | 171 | 2.6 | 8.7 | 0.00 | 0.00 | 0.00 | 68 | 1014.0 |
| 20260903131515 | 73 | 360 | 3.5 | 7.8 | 0.00 | 0.00 | 0.00 | 68 | 1014.0 |
| 20260903130022 | 73 | 194 | 3.5 | 9.6 | 0.00 | 0.00 | 0.00 | 68 | 1013.8 |
| 20260903124529 | 72 | 360 | 3.5 | 8.7 | 0.00 | 0.00 | 0.00 | 71 | 1013.7 |
| 20260903123006 | 71 | 360 | 1.7 | 8.7 | 0.00 | 0.00 | 0.00 | 71 | 1013.7 |
| 20260903121514 | 71 | 234 | 2.6 | 7.8 | 0.00 | 0.00 | 0.00 | 71 | 1013.6 |
| 20260903120020 | 71 | 215 | 1.7 | 7.0 | 0.00 | 0.00 | 0.00 | 71 | 1013.7 |
| 20260903114528 | 71 | 360 | 2.6 | 6.1 | 0.00 | 0.00 | 0.00 | 70 | 1013.8 |
| 20260903113035 | 72 | 195 | 3.5 | 7.8 | 0.00 | 0.00 | 0.00 | 69 | 1013.5 |
| 20260903111510 | 72 | 360 | 2.6 | 8.7 | 0.00 | 0.00 | 0.00 | 68 | 1013.4 |
| 20260903110019 | 73 | 360 | 3.5 | 7.8 | 0.00 | 0.00 | 0.00 | 67 | 1013.4 |
| 20260903104527 | 74 | 196 | 3.5 | 8.7 | 0.00 | 0.00 | 0.00 | 65 | 1013.4 |
| 20260903103030 | 74 | 173 | 3.5 | 10.4 | 0.00 | 0.00 | 0.00 | 63 | 1013.5 |
| 20260903101515 | 75 | 228 | 5.2 | 9.6 | 0.00 | 0.00 | 0.00 | 62 | 1013.5 |
| 20260903100018 | 75 | 360 | 4.3 | 9.6 | 0.00 | 0.00 | 0.00 | 61 | 1013.6 |
| 20260903094503 | 75 | 360 | 4.3 | 10.4 | 0.00 | 0.00 | 0.00 | 60 | 1013.6 |
| 20260903093004 | 75 | 360 | 4.3 | 9.6 | 0.00 | 0.00 | 0.00 | 59 | 1013.7 |
| 20260903091508 | 76 | 360 | 3.5 | 9.6 | 0.00 | 0.00 | 0.00 | 58 | 1013.7 |
| 20260903090027 | 76 | 172 | 4.3 | 9.6 | 0.00 | 0.00 | 0.00 | 57 | 1013.8 |
| 20260903084524 | 77 | 161 | 3.5 | 10.4 | 0.00 | 0.00 | 0.00 | 56 | 1013.8 |
| 20260903083005 | 77 | 360 | 4.3 | 9.6 | 0.00 | 0.00 | 0.00 | 55 | 1013.9 |
| 20260903081507 | 77 | 360 | 3.5 | 10.4 | 0.00 | 0.00 | 0.00 | 55 | 1013.8 |
| 20260903080019 | 77 | 360 | 3.5 | 9.6 | 0.00 | 0.00 | 0.00 | 54 | 1013.8 |
| 20260903074521 | 77 | 360 | 4.3 | 10.4 | 0.00 | 0.00 | 0.00 | 54 | 1013.8 |
| 20260903073032 | 77 | 360 | 4.3 | 9.6 | 0.00 | 0.00 | 0.00 | 54 | 1013.8 |
| 20260903071511 | 77 | 360 | 4.3 | 9.6 | 0.00 | 0.00 | 0.00 | 55 | 1013.8 |
| 20260903070012 | 76 | 360 | 4.3 | 8.7 | 0.00 | 0.00 | 0.00 | 57 | 1013.8 |
| 20260903064516 | 76 | 360 | 4.3 | 8.7 | 0.00 | 0.00 | 0.00 | 58 | 1013.8 |
| 20260903063023 | 76 | 182 | 4.3 | 7.8 | 0.00 | 0.00 | 0.00 | 58 | 1013.8 |
| 20260903061541 | 76 | 360 | 3.5 | 8.7 | 0.00 | 0.00 | 0.00 | 59 | 1013.8 |
| 20260903060013 | 76 | 179 | 3.5 | 7.0 | 0.00 | 0.00 | 0.00 | 60 | 1013.7 |
| 20260903054514 | 76 | 360 | 3.5 | 7.0 | 0.00 | 0.00 | 0.00 | 58 | 1013.6 |
| 20260903053024 | 78 | 159 | 3.5 | 8.7 | 0.00 | 0.00 | 0.00 | 56 | 1013.5 |
| 20260903051528 | 78 | 360 | 3.5 | 7.8 | 0.00 | 0.00 | 0.00 | 56 | 1013.7 |
| 20260903050037 | 76 | 360 | 2.6 | 7.0 | 0.00 | 0.00 | 0.00 | 59 | 1013.8 |
| 20260903044516 | 76 | 360 | 2.6 | 5.2 | 0.00 | 0.00 | 0.00 | 60 | 1013.8 |
| 20260903043021 | 76 | 155 | 2.6 | 5.2 | 0.00 | 0.00 | 0.00 | 60 | 1013.7 |
| 20260903041536 | 77 | 173 | 1.7 | 4.3 | 0.00 | 0.00 | 0.00 | 58 | 1013.7 |
| 20260903040034 | 78 | 360 | 2.6 | 7.0 | 0.00 | 0.00 | 0.00 | 56 | 1013.8 |
| 20260903034542 | 80 | 175 | 1.7 | 4.3 | 0.00 | 0.00 | 0.00 | 54 | 1013.8 |
| 20260903033021 | 80 | 199 | 1.7 | 4.3 | 0.00 | 0.00 | 0.00 | 54 | 1013.8 |
| 20260903031523 | 80 | 185 | 1.7 | 4.3 | 0.00 | 0.00 | 0.00 | 53 | 1013.7 |
| 20260903030028 | 82 | 192 | 0.9 | 2.6 | 0.00 | 0.00 | 0.00 | 51 | 1013.5 |
| 20260903024533 | 83 | 360 | 1.7 | 4.3 | 0.00 | 0.00 | 0.00 | 49 | 1013.3 |
| 20260903023029 | 84 | 360 | 1.7 | 7.8 | 0.00 | 0.00 | 0.00 | 48 | 1013.2 |
| 20260903023003 | 84 | 190 | 1.7 | 7.8 | 0.00 | 0.00 | 0.00 | 48 | 1013.2 |
| 20260903021506 | 84 | 196 | 1.7 | 4.3 | 0.00 | 0.00 | 0.00 | 48 | 1013.0 |
| 20260903020003 | 84 | 360 | 1.7 | 4.3 | 0.00 | 0.00 | 0.00 | 48 | 1012.9 |
| 20260903014509 | 84 | 180 | 0.9 | 2.6 | 0.00 | 0.00 | 0.00 | 47 | 1012.7 |
| 20260903013015 | 87 | 228 | 0.9 | 4.3 | 0.00 | 0.00 | 0.00 | 44 | 1012.6 |
| 20260903011503 | 89 | 180 | 1.7 | 3.5 | 0.00 | 0.00 | 0.00 | 41 | 1012.5 |
| 20260903010007 | 90 | 360 | 1.7 | 5.2 | 0.00 | 0.00 | 0.00 | 39 | 1012.5 |
| 20260903004504 | 92 | 360 | 2.6 | 7.8 | 0.00 | 0.00 | 0.00 | 37 | 1012.5 |
| 20260903003011 | 93 | 202 | 4.3 | 10.4 | 0.00 | 0.00 | 0.00 | 35 | 1012.4 |
| 20260903001517 | 94 | 173 | 4.3 | 11.3 | 0.00 | 0.00 | 0.00 | 34 | 1012.3 |